TimeEDT,TemperatureF,Dew PointF,Humidity,Sea Level PressureIn,VisibilityMPH,Wind Direction,Wind SpeedMPH,Gust SpeedMPH,PrecipitationIn,Events,Conditions,WindDirDegrees,DateUTC
12:13 AM,50.0,46.4,87,29.73,10.0,Calm,Calm,-,N/A,,Overcast,0,2013-05-12 04:13:00
12:37 AM,50.0,46.4,87,29.73,10.0,Calm,Calm,-,N/A,,Overcast,0,2013-05-12 04:37:00
12:54 AM,51.1,46.9,86,29.73,10.0,Calm,Calm,-,N/A,,Mostly Cloudy,0,2013-05-12 04:54:00
1:54 AM,51.1,46.9,86,29.72,10.0,Calm,Calm,-,N/A,,Overcast,0,2013-05-12 05:54:00
2:54 AM,51.1,44.1,77,29.70,10.0,Calm,Calm,-,N/A,,Mostly Cloudy,0,2013-05-12 06:54:00
3:54 AM,48.9,42.1,77,29.68,10.0,SSE,3.5,-,N/A,,Scattered Clouds,150,2013-05-12 07:54:00
4:54 AM,50.0,44.1,80,29.68,10.0,SSW,5.8,-,N/A,,Mostly Cloudy,200,2013-05-12 08:54:00
5:54 AM,50.0,41.0,71,29.70,10.0,WNW,15.0,31.1,0.00,Rain,Light Rain,300,2013-05-12 09:54:00
6:30 AM,46.4,39.2,76,29.73,10.0,NW,16.1,-,0.00,,Overcast,310,2013-05-12 10:30:00
6:54 AM,45.0,39.0,80,29.74,10.0,WNW,11.5,-,0.00,,Overcast,290,2013-05-12 10:54:00
7:14 AM,44.6,37.4,76,29.76,10.0,WNW,9.2,-,0.00,Rain,Light Rain,290,2013-05-12 11:14:00
7:36 AM,44.6,37.4,76,29.77,10.0,West,16.1,23.0,0.00,Rain,Light Rain,280,2013-05-12 11:36:00
7:54 AM,46.0,34.0,63,29.77,10.0,West,16.1,25.3,0.00,,Overcast,270,2013-05-12 11:54:00
8:54 AM,46.0,33.1,61,29.78,10.0,West,11.5,24.2,N/A,,Mostly Cloudy,280,2013-05-12 12:54:00
9:54 AM,48.0,30.9,52,29.78,10.0,West,17.3,-,N/A,,Mostly Cloudy,260,2013-05-12 13:54:00
10:54 AM,50.0,30.0,46,29.77,10.0,West,15.0,23.0,N/A,,Mostly Cloudy,260,2013-05-12 14:54:00
11:54 AM,52.0,30.9,45,29.77,10.0,WSW,15.0,21.9,N/A,,Mostly Cloudy,250,2013-05-12 15:54:00
12:54 PM,53.1,28.9,40,29.74,10.0,WSW,12.7,-,N/A,,Mostly Cloudy,240,2013-05-12 16:54:00
1:54 PM,53.1,26.1,35,29.75,10.0,West,24.2,29.9,0.00,,Mostly Cloudy,260,2013-05-12 17:54:00
2:54 PM,55.9,28.0,34,29.75,10.0,West,21.9,33.4,N/A,,Scattered Clouds,260,2013-05-12 18:54:00
3:54 PM,54.0,25.0,33,29.75,10.0,West,17.3,32.2,N/A,,Mostly Cloudy,260,2013-05-12 19:54:00
4:54 PM,53.1,28.0,38,29.78,10.0,West,21.9,33.4,N/A,,Mostly Cloudy,270,2013-05-12 20:54:00
5:52 PM,46.4,33.8,62,29.81,10.0,NW,18.4,26.5,0.00,Rain,Light Rain,310,2013-05-12 21:52:00
5:54 PM,45.0,34.0,65,29.81,10.0,NW,15.0,24.2,0.00,Rain,Light Rain,310,2013-05-12 21:54:00
6:54 PM,43.0,36.0,76,29.83,10.0,WNW,10.4,-,0.00,Rain,Light Rain,290,2013-05-12 22:54:00
7:54 PM,44.1,34.0,68,29.83,10.0,WSW,11.5,-,0.00,,Mostly Cloudy,250,2013-05-12 23:54:00
8:54 PM,42.1,35.1,76,29.85,10.0,West,15.0,21.9,0.01,,Mostly Cloudy,270,2013-05-13 00:54:00
9:54 PM,43.0,34.0,71,29.88,10.0,WNW,13.8,21.9,0.00,Rain,Light Rain,300,2013-05-13 01:54:00
10:01 PM,37.4,33.8,87,29.89,6.0,WSW,23.0,34.5,0.01,Rain,Light Rain,250,2013-05-13 02:01:00
10:09 PM,37.4,32.0,81,29.89,8.0,WSW,24.2,31.1,0.02,Rain-Snow,Light Rain,250,2013-05-13 02:09:00
10:37 PM,37.4,33.8,87,29.89,10.0,WSW,15.0,29.9,0.02,Rain-Snow,Light Rain,240,2013-05-13 02:37:00
10:54 PM,39.0,32.0,76,29.89,10.0,WSW,13.8,-,0.02,,Overcast,240,2013-05-13 02:54:00
11:54 PM,39.0,33.1,79,29.89,10.0,West,8.1,-,0.00,,Overcast,270,2013-05-13 03:54:00